Regional Weather Roundup
Issued by NWS

Home | Current Version | Previous Version | Graphics & Text | Print | Product List | Glossary On
Versions: 1 2 3 4 5 6 7 8 9 10 11 12 13 14 15 16 17 18 19 20 21 22 23 24 25 26 27 28 29 30 31 32 33 34 35 36 37 38 39 40 41 42 43 44 45 46 47 48 49 50
000
ASUS43 KOAX 041402
RWRNE

WEATHER ROUNDUP FOR NEBRASKA
NATIONAL WEATHER SERVICE OMAHA NE
900 AM CDT SAT JUL 04 2015

NOTES: SATELLITE DATA IS BEING USED TO AUGMENT CLOUD COVER ABOVE
       12000 FEET.
       "FAIR" INDICATES FEW OR NO CLOUDS BELOW 12,000 FEET WITH NO
       SIGNIFICANT WEATHER AND/OR OBSTRUCTIONS TO VISIBILITY.

  * THESE STATIONS DO NOT REPORT WEATHER SUCH AS RAIN...SNOW OR FOG.

NEZ001>004-019>022-054>056-041500-
NEBRASKA PANHANDLE

CITY           SKY/WX    TMP DP  RH WIND       PRES   REMARKS
SCOTTSBLUFF    MOSUNNY   70  61  73 SE9       29.95R
ALLIANCE       SUNNY     69  62  78 S12       29.95S
CHADRON        SUNNY     73  61  65 S9        29.90F
KIMBALL          N/A    N/A N/A N/A MISG        N/A
SIDNEY         MOSUNNY   68  61  78 S9        29.98R
$$

NEZ057>060-069>072-079>082-041500-
SOUTHWEST NEBRASKA

CITY           SKY/WX    TMP DP  RH WIND       PRES   REMARKS
NORTH PLATTE   SUNNY     70  61  73 E7        29.97S
IMPERIAL       MOSUNNY   71  60  68 S15       29.97S
LEXINGTON      MOSUNNY   69  64  85 SE8       29.98S
MCCOOK         SUNNY     71  61  70 S9        29.97F
$$

NEZ005>010-023>029-035>040-094-041500-
NORTH CENTRAL NEBRASKA

CITY           SKY/WX    TMP DP  RH WIND       PRES   REMARKS
VALENTINE      SUNNY     72  60  66 S12       29.93F
AINSWORTH      MOSUNNY   69  62  78 S8        29.96S
BROKEN BOW     PTSUNNY   67  63  87 SE5       29.98F FOG
ORD            PTSUNNY   70  62  76 S14       29.97S
$$

NEZ041-046>049-061>064-073>077-083>087-041500-
SOUTH CENTRAL NEBRASKA

CITY           SKY/WX    TMP DP  RH WIND       PRES   REMARKS
GRAND ISLAND   MOSUNNY   72  62  71 SW12      30.00S
AURORA         MOSUNNY   69  62  78 S9        30.00S
HASTINGS       PTSUNNY   67  61  81 S6        30.00F
KEARNEY *      PTSUNNY   68  63  83 S8        29.99F
$$

NEZ011>018-030>034-042>045-041500-
NORTHEAST NEBRASKA

CITY           SKY/WX    TMP DP  RH WIND       PRES   REMARKS
NORFOLK        SUNNY     70  64  81 S5        29.98F
BLAIR          SUNNY     67  59  74 S3        30.01R
COLUMBUS *     SUNNY     68  57  68 CALM      30.01R
FREMONT        SUNNY     70  60  69 S3        30.01R
TEKAMAH        SUNNY     67  60  78 SE3       30.00S
$$

NEZ050>053-065>068-078-088>093-041500-
SOUTHEAST NEBRASKA

CITY           SKY/WX    TMP DP  RH WIND       PRES   REMARKS
LINCOLN        SUNNY     68  61  78 S3        30.01F
OMAHA EPPLEY   SUNNY     67  59  75 SE5       30.01S
FALLS CITY     SUNNY     68  62  81 SE3       30.02R
NEBRASKA CITY  SUNNY     67  61  80 S5        30.02S HAZE
PLATTSMOUTH    SUNNY     67  60  77 SE3       30.01S
$$

NEZ044-045-051>053-067-041500-
OMAHA AREA

CITY           SKY/WX    TMP DP  RH WIND       PRES   REMARKS
OMAHA EPPLEY   SUNNY     67  59  75 SE5       30.01S
BLAIR          SUNNY     67  59  74 S3        30.01R
FREMONT        SUNNY     70  60  69 S3        30.01R
MILLARD        SUNNY     68  61  78 SE3       30.01R
OFFUTT AFB     SUNNY     63  63 100 VRB2      30.00S
PLATTSMOUTH    SUNNY     67  60  77 SE3       30.01S
WAHOO          FAIR      68  62  83 S3        30.00S
$$


USA.gov is the U.S. government's official web portal to all federal, state and local government web resources and services.